Location: Windsor
(43.2292°N, 89.3015°W)
Time: 16:38:58
(UTC+00:00)

AO-7 - Pass Details

Date: 07 July 2022
Orbit: 1440 x 1458 km, 101.9° (Epoch: 09 August)

Event Time Altitude Azimuth Distance (km) Brightness Sun altitude
Rises 09:07:11 0° 28° (NNE) 4,562 ? -11.7°
Reaches altitude 10° 09:10:42 10° 41° (NE) 3,582 ? -11.2°
Maximum altitude 09:17:15 25° 93° (E) 2,608 ? -10.4°
Drops below altitude 10° 09:23:45 10° 145° (SE) 3,574 ? -9.6°
Sets 09:27:13 0° 158° (SSE) 4,549 ? -9.1°
